Waverly, WV

1:30 AM EDT on September 27, 2016 (GMT -0400)
Wood County Wilson

Weather History for KPKB - January, 2013

Change the Weather History Date:

Saturday, January 12, 2013

  Actual Average Record
Temperature  
Mean Temperature 60 °F 31 °F  
Max Temperature 68 °F 40 °F 70 °F (1898)
Min Temperature 52 °F 23 °F -6 °F (1912)
Degree Days  
Heating Degree Days 5 34  
Month to date heating degree days 346 401  
Since 1 July heating degree days 2253 2311  
Cooling Degree Days 0 0  
Month to date cooling degree days 0 0  
Year to date cooling degree days 0 0  
Growing Degree Days 10 (Base 50)    
Moisture  
Dew Point 55 °F    
Average Humidity 87    
Maximum Humidity 100    
Minimum Humidity 73    
Precipitation  
Precipitation 0.03 in 0.10 in 0.36 in (2007)
Month to date precipitation 0.30 1.13  
Year to date precipitation 0.30 1.13  
Sea Level Pressure  
Sea Level Pressure 30.05 in    
Wind  
Wind Speed 5 mph (SSE)    
Max Wind Speed 12 mph    
Max Gust Speed 16 mph    
Visibility 10 miles    
Events Rain    
T = Trace of Precipitation, MM = Missing Value Source: NWS Daily Summary

Daily Weather History Graph

Daily Weather History Graph

Search for Another Location

Airport or City:

Trip Planner

Search our weather history database for the weather conditions in past years. The results will help you decide how hot, cold, wet, or windy it might be!

Date:

Astronomy

Jan. 12, 2013 Rise Set
Actual Time 7:44 AM EST 5:23 PM EST
Civil Twilight 7:15 AM EST 5:53 PM EST
Nautical Twilight 6:42 AM EST 6:26 PM EST
Astronomical Twilight 6:09 AM EST 6:58 PM EST
Moon 8:03 AM EST (1/12) 6:50 PM EST (1/12)
Length of Visible Light 10h 38m
Length of Day
9h 38m
New Moon, 1% of the Moon is Illuminated
Jan 12
New Moon
Jan 18
First Quarter
Jan 26
Full
Feb 3
Last Quarter
Feb 10
New

Hourly Weather History & Observations

Time (EST) Temp. Dew Point Humidity Pressure Visibility Wind Dir Wind Speed Gust Speed Precip Events Conditions
12:04 AM 53.6 °F 51.8 °F 94% 30.03 in 3.0 mi South 5.8 mph - N/A   Clear
12:53 AM 54.0 °F 53.1 °F 97% 30.03 in 10.0 mi South 6.9 mph - N/A   Partly Cloudy
1:53 AM 55.0 °F 53.1 °F 93% 30.03 in 10.0 mi South 5.8 mph - N/A   Mostly Cloudy
2:53 AM 55.9 °F 54.0 °F 93% 30.04 in 10.0 mi South 5.8 mph - 0.01 in   Mostly Cloudy
3:53 AM 54.0 °F 53.1 °F 97% 30.05 in 10.0 mi SSE 5.8 mph - N/A   Clear
4:53 AM 55.0 °F 53.1 °F 93% 30.04 in 10.0 mi South 3.5 mph - N/A   Partly Cloudy
5:37 AM 53.6 °F 51.8 °F 94% 30.06 in 10.0 mi South 4.6 mph - N/A   Mostly Cloudy
5:53 AM 53.1 °F 52.0 °F 96% 30.06 in 10.0 mi South 4.6 mph - N/A   Overcast
6:13 AM 53.6 °F 51.8 °F 94% 30.07 in 10.0 mi South 3.5 mph - N/A   Scattered Clouds
6:34 AM 53.6 °F 51.8 °F 94% 30.07 in 10.0 mi South 4.6 mph - N/A   Mostly Cloudy
6:53 AM 54.0 °F 52.0 °F 93% 30.07 in 10.0 mi South 5.8 mph - N/A   Mostly Cloudy
6:59 AM 53.6 °F 51.8 °F 94% 30.08 in 10.0 mi South 4.6 mph - N/A   Mostly Cloudy
7:53 AM 54.0 °F 52.0 °F 93% 30.09 in 10.0 mi South 5.8 mph - N/A   Overcast
8:03 AM 55.4 °F 53.6 °F 94% 30.10 in 10.0 mi South 5.8 mph - N/A   Overcast
8:53 AM 55.9 °F 54.0 °F 93% 30.11 in 10.0 mi South 5.8 mph - N/A   Scattered Clouds
9:53 AM 61.0 °F 55.9 °F 83% 30.12 in 10.0 mi South 5.8 mph - N/A   Clear
10:53 AM 63.0 °F 57.9 °F 84% 30.11 in 10.0 mi South 6.9 mph - N/A   Clear
11:53 AM 64.0 °F 57.9 °F 80% 30.09 in 10.0 mi South 4.6 mph - N/A   Clear
12:53 PM 66.0 °F 57.9 °F 75% 30.07 in 10.0 mi SSW 5.8 mph - N/A   Scattered Clouds
1:07 PM 66.2 °F 57.2 °F 73% 30.07 in 10.0 mi South 10.4 mph 16.1 mph N/A   Mostly Cloudy
1:53 PM 66.9 °F 57.9 °F 73% 30.06 in 10.0 mi South 8.1 mph - N/A   Mostly Cloudy
2:00 PM 66.2 °F 57.2 °F 73% 30.07 in 10.0 mi SSW 10.4 mph - N/A   Clear
2:53 PM 66.9 °F 57.9 °F 73% 30.06 in 10.0 mi South 6.9 mph - N/A   Scattered Clouds
3:21 PM 66.2 °F 57.2 °F 73% 30.08 in 10.0 mi SSW 8.1 mph - N/A   Mostly Cloudy
3:53 PM 66.9 °F 57.9 °F 73% 30.06 in 10.0 mi South 4.6 mph - N/A   Overcast
4:53 PM 66.0 °F 57.9 °F 75% 30.05 in 10.0 mi Calm Calm - N/A   Overcast
5:53 PM 64.9 °F 57.9 °F 78% 30.04 in 10.0 mi ESE 4.6 mph - N/A   Overcast
6:05 PM 64.4 °F 57.2 °F 77% 30.03 in 10.0 mi SE 4.6 mph - N/A   Overcast
6:53 PM 64.0 °F 57.0 °F 78% 30.01 in 10.0 mi SE 4.6 mph - N/A   Mostly Cloudy
8:53 PM 61.0 °F 57.0 °F 87% 30.00 in 6.0 mi SE 4.6 mph - 0.02 in Rain Light Rain
9:53 PM 62.1 °F 57.9 °F 86% 29.97 in 10.0 mi SE 5.8 mph - 0.00 in   Overcast
10:53 PM 62.1 °F 57.9 °F 86% 29.95 in 10.0 mi SE 4.6 mph - N/A   Mostly Cloudy
11:53 PM 61.0 °F 55.9 °F 83% 29.94 in 10.0 mi SE 4.6 mph - N/A   Clear